User: anonymous
Location: Columbia
(38.9520°N, 92.3340°W)
Time: 11:28:39
(UTC-05:00)
Language:

CZ-4B R/B - Orbit

View from above orbital plane
View from above orbital plane
View from above satellite
View from above satellite

Ground track
Ground track

The orbit data is extracted from the following two-line orbital elements,

1 29093U 06015B   14274.11939628  .00012705  00000-0  45112-3 0  4167
2 29093 097.5141 354.0364 0087508 248.2631 172.4676 15.25540349465726
Epoch (UTC): 01 October 2014 02:51:55
Eccentricity: 0.0087508
inclination: 97.5141°
perigee height: 429 km
apogee height: 549 km
right ascension of ascending node: 354.0364°
argument of perigee: 248.2631°
revolutions per day: 15.25540349
mean anomaly at epoch: 172.4676°
orbit number at epoch: 46572

The dashed part of the orbit path shows where the satellite is in the earth's shadow,  

DLR